User: anonymous   Login
Location: *
(58.7167°N, 26.1833°E)
Time: 02:52:00
(UTC+00:00)
Language:

NOSS 3-4 (C) - Orbit

View from above orbital plane
View from above orbital plane
View from above satellite
View from above satellite

Ground track
Ground track

The orbit data is extracted from the following two-line orbital elements,

1 31708U 07027C   19264.78947669 0.00000000  00000-0  00000-0 0    06
2 31708  63.3931 135.4494 0257566  20.0068 339.9932 13.40787656    08
Epoch (UTC): 21 September 2019 18:56:50
Eccentricity: 0.0257566
inclination: 63.3931°
perigee height: 913 km
apogee height: 1299 km
right ascension of ascending node: 135.4494°
argument of perigee: 20.0068°
revolutions per day: 13.40787656
mean anomaly at epoch: 339.9932°
orbit number at epoch: 0

The dashed part of the orbit path shows where the satellite is in the earth's shadow,  

DLR